Tracking 18850 objects as of 22-Nov-2017
HD Live streaming from Space Station
objects crossing your sky now

GORIZONT 7

Track GORIZONT 7 now!
GORIZONT 7 is classified as:


NORAD ID: 14160
Int'l Code: 1983-066A
Perigee: 36,275.7 km
Apogee: 36,409.1 km
Inclination: 14.7 °
Period: 1,464.2 minutes
Semi major axis: 42713 km
RCS: 1.3456 m2 (large)
Launch date: June 30, 1983
Source: Commonwealth of Independent States (former USSR) (CIS)
Launch site: TYURATAM MISSILE AND SPACE COMPLEX (TTMTR)
aabbcc
Your satellite tracking list
Your tracking list is empty




NASA's NSSDC Master Catalog

Two Line Element Set (TLE):
1 14160U 83066A   17326.01831388 -.00000026 +00000-0 +00000-0 0  9995
2 14160 014.6535 340.0365 0015615 275.3382 261.6970 00.98346058123973
Source of the keplerian elements: AFSPC